{"data":{"norad_id":62226,"intl_designator":"2024-231J","name":"STARLINK-11475 [DTC]","alt_names":[],"object_type":"PAYLOAD","status":"ACTIVE","operator":null,"country":"US","launch_date":"2024-12-05","launch_site_code":"AFWTR","launch_vehicle":null,"mission":null,"orbit_class":"UNKNOWN","rcs_meters":null,"size_class":null,"mass_kg":null,"dimensions":null,"purposes":["comms"],"wikipedia_slug":null,"has_3d_model":false,"image_url":null,"decayed_at":null,"tle_current":{"epoch":"2026-09-21T03:42:25.662816Z","epoch_age_seconds":121679,"freshness":"FRESH","line1":"1 62226U 24231J   26264.15446369  .00148654  00000+0  12093-2 0  9992","line2":"2 62226  53.1565 217.5319 0000766  67.7663 292.3436 15.69723830104117","mean_motion":15.6972383,"eccentricity":7.66e-5,"inclination_deg":53.1565,"raan_deg":217.5319,"arg_perigee_deg":67.7663,"mean_anomaly_deg":292.3436,"bstar":0.0012093,"rev_number":10411,"period_min":91.735881973583,"perigee_km":359.17105721242,"apogee_km":360.20329187597,"semimajor_km":6737.8241745442,"source":"CELESTRAK","updated_at":"2026-09-22T09:00:49.562930Z"}}}